Stoneville, NC

4:29 AM EST on February 07, 2016 (GMT -0500)
Reidsville

Weather History for KSIF - April, 2014

Change the Weather History Date:

Tuesday, April 29, 2014

  Actual Average (KGSO) Record (KGSO)
Temperature  
Mean Temperature 52 °F 62 °F  
Max Temperature 54 °F 74 °F 93 °F (1915)
Min Temperature 50 °F 51 °F 35 °F (1973)
Degree Days  
Heating Degree Days 13 4  
Month to date heating degree days 216  
Since 1 July heating degree days 3541  
Cooling Degree Days 0 2  
Month to date cooling degree days 35  
Year to date cooling degree days 40  
Growing Degree Days 2 (Base 50)    
Moisture  
Dew Point 52 °F    
Average Humidity 99    
Maximum Humidity 100    
Minimum Humidity 95    
Precipitation  
Precipitation 0.00 in 0.12 in 1.80 in (1999)
Month to date precipitation 3.47  
Year to date precipitation 13.22  
Snow  
Snow 0.00 in 0.00 in 0.00 in ()
Month to date snowfall 0.1  
Since 1 July snowfall 7.6  
Snow Depth -    
Sea Level Pressure  
Sea Level Pressure 30.00 in    
Wind  
Wind Speed 4 mph (NE)    
Max Wind Speed 9 mph    
Max Gust Speed -    
Visibility 3 miles    
Events Rain    
T = Trace of Precipitation, MM = Missing Value Source: NWS Daily Summary

Daily Weather History Graph

Daily Weather History Graph

Search for Another Location

Airport or City:

Trip Planner

Search our weather history database for the weather conditions in past years. The results will help you decide how hot, cold, wet, or windy it might be!

Date:

Astronomy

Apr. 29, 2014 Rise Set
Actual Time 6:28 AM EDT 8:05 PM EDT
Civil Twilight 6:00 AM EDT 8:33 PM EDT
Nautical Twilight 5:27 AM EDT 9:06 PM EDT
Astronomical Twilight 4:52 AM EDT 9:41 PM EDT
Moon 6:45 AM EDT (4/29) 8:43 PM EDT (4/29)
Length of Visible Light 14h 32m
Length of Day
13h 37m
New Moon, 0% of the Moon is Illuminated
Apr 29
New Moon
May 6
First Quarter
May 14
Full
May 21
Last Quarter
May 28
New

Hourly Weather History & Observations

Time (EDT) Temp. Dew Point Humidity Pressure Visibility Wind Dir Wind Speed Gust Speed Precip Events Conditions
12:15 AM 51.8 °F 50.4 °F 95% 29.96 in 7.0 mi NNE 3.5 mph - N/A   Overcast
12:35 AM 51.8 °F 50.4 °F 95% 29.96 in 5.0 mi Calm Calm - N/A   Overcast
12:55 AM 51.8 °F 50.5 °F 95% 29.98 in 4.0 mi Calm Calm - N/A   Overcast
1:15 AM 51.8 °F 50.9 °F 97% 29.98 in 2.0 mi NE 3.5 mph - N/A   Overcast
1:35 AM 51.6 °F 50.9 °F 97% 29.96 in 2.5 mi ENE 4.6 mph - N/A   Overcast
1:55 AM 51.4 °F 50.9 °F 98% 29.95 in 2.0 mi NE 5.8 mph - N/A   Overcast
2:15 AM 51.3 °F 50.9 °F 99% 29.94 in 2.0 mi NNE 4.6 mph - N/A   Overcast
2:35 AM 51.3 °F 50.9 °F 99% 29.95 in 2.5 mi NE 4.6 mph - N/A   Overcast
2:55 AM 51.3 °F 50.9 °F 99% 29.96 in 3.0 mi NE 3.5 mph - N/A   Overcast
3:15 AM 51.3 °F 50.9 °F 99% 29.96 in 2.5 mi NNE 4.6 mph - N/A   Overcast
3:35 AM 51.1 °F 50.9 °F 99% 29.95 in 2.5 mi NE 5.8 mph - N/A   Overcast
3:55 AM 51.1 °F 50.9 °F 99% 29.96 in 2.5 mi NNE 4.6 mph - N/A   Overcast
4:15 AM 50.9 °F 50.9 °F 100% 29.96 in 2.5 mi NNE 4.6 mph - N/A   Overcast
4:35 AM 50.9 °F 50.9 °F 100% 29.96 in 2.5 mi NE 4.6 mph - N/A   Overcast
5:15 AM 50.9 °F 50.9 °F 100% 29.96 in 2.5 mi ENE 6.9 mph - N/A   Overcast
5:35 AM 50.4 °F 50.2 °F 99% 30.01 in 4.0 mi NW 9.2 mph - N/A   Overcast
5:55 AM 50.7 °F 50.4 °F 99% 29.98 in 4.0 mi NE 4.6 mph - N/A Rain Light Rain
6:15 AM 50.4 °F 50.2 °F 99% 29.98 in 3.0 mi ENE 4.6 mph - N/A Rain Light Rain
6:35 AM 50.2 °F 50.0 °F 99% 29.98 in 5.0 mi Calm Calm - N/A   Overcast
6:55 AM 50.2 °F 50.0 °F 99% 29.99 in 3.0 mi ENE 4.6 mph - N/A   Overcast
7:15 AM 50.2 °F 50.0 °F 99% 30.00 in 2.5 mi NE 4.6 mph - N/A   Overcast
7:35 AM 50.2 °F 50.0 °F 99% 30.00 in 3.0 mi ENE 4.6 mph - N/A   Overcast
7:55 AM 50.2 °F 50.0 °F 99% 30.01 in 1.8 mi NE 3.5 mph - N/A   Overcast
8:15 AM 50.2 °F 50.0 °F 99% 30.01 in 1.5 mi NE 4.6 mph - N/A Rain Rain
8:35 AM 50.4 °F 50.2 °F 99% 30.01 in 1.5 mi ENE 4.6 mph - N/A   Drizzle
8:55 AM 50.4 °F 50.2 °F 99% 30.01 in 1.8 mi ENE 4.6 mph - N/A Rain Light Rain
9:15 AM 50.5 °F 50.4 °F 99% 30.01 in 2.0 mi NE 3.5 mph - N/A   Overcast
9:35 AM 50.9 °F 50.5 °F 99% 30.01 in 2.0 mi NE 4.6 mph - N/A   Overcast
9:55 AM 50.9 °F 50.9 °F 100% 30.01 in 2.0 mi ENE 4.6 mph - N/A   Overcast
10:15 AM 51.1 °F 50.9 °F 99% 30.01 in 1.8 mi ENE 5.8 mph - N/A   Overcast
10:35 AM 50.9 °F 50.9 °F 100% 30.00 in 2.0 mi NE 6.9 mph - N/A   Overcast
10:55 AM 51.1 °F 50.9 °F 99% 30.00 in 2.0 mi NE 5.8 mph - N/A   Overcast
11:15 AM 51.1 °F 50.9 °F 99% 30.03 in 1.8 mi ENE 4.6 mph - N/A   Overcast
11:35 AM 51.6 °F 51.4 °F 99% 30.01 in 1.5 mi NE 5.8 mph - N/A   Overcast
11:55 AM 52.0 °F 51.8 °F 99% 30.02 in 1.5 mi NE 4.6 mph - N/A   Overcast
12:15 PM 52.3 °F 52.2 °F 99% 30.02 in 1.8 mi NNE 5.8 mph - N/A   Overcast
12:35 PM 52.7 °F 52.5 °F 99% 30.02 in 2.0 mi Calm Calm - N/A   Overcast
12:55 PM 52.7 °F 52.3 °F 99% 30.01 in 2.0 mi NE 6.9 mph - N/A   Overcast
1:15 PM 52.9 °F 52.5 °F 99% 30.01 in 3.0 mi NE 4.6 mph - N/A   Overcast
1:35 PM 53.1 °F 52.7 °F 99% 30.01 in 3.0 mi ENE 4.6 mph - N/A   Overcast
1:55 PM 53.2 °F 52.7 °F 98% 30.01 in 2.5 mi NNE 5.8 mph - N/A   Overcast
2:15 PM 53.6 °F 52.9 °F 97% 30.01 in 5.0 mi ENE 5.8 mph - N/A   Overcast
2:35 PM 54.0 °F 53.1 °F 97% 30.01 in 5.0 mi ENE 3.5 mph - N/A   Overcast
2:55 PM 54.0 °F 52.9 °F 96% 30.01 in 4.0 mi NNE 6.9 mph - N/A   Overcast
3:15 PM 54.0 °F 53.1 °F 97% 30.01 in 3.0 mi NE 5.8 mph - N/A   Overcast
3:35 PM 54.0 °F 53.1 °F 97% 30.01 in 3.0 mi NE 5.8 mph - N/A   Overcast
3:55 PM 54.0 °F 53.2 °F 97% 30.01 in 3.0 mi North 5.8 mph - N/A   Overcast
4:15 PM 53.8 °F 53.1 °F 97% 30.01 in 3.0 mi NNE 4.6 mph - N/A   Overcast
4:35 PM 54.0 °F 53.6 °F 99% 29.99 in 4.0 mi NNE 6.9 mph - N/A   Overcast
4:55 PM 54.1 °F 53.4 °F 97% 29.99 in 4.0 mi NE 3.5 mph - N/A   Overcast
5:15 PM 54.0 °F 53.2 °F 97% 30.01 in 3.0 mi NNE 5.8 mph - N/A   Overcast
5:35 PM 54.0 °F 53.2 °F 97% 30.01 in 3.0 mi NNE 3.5 mph - N/A   Overcast
5:55 PM 54.0 °F 53.6 °F 99% 30.02 in 2.5 mi NNE 5.8 mph - N/A   Overcast
6:15 PM 53.8 °F 53.2 °F 98% 30.01 in 2.0 mi NNE 5.8 mph - N/A   Overcast
6:35 PM 53.8 °F 53.4 °F 99% 30.01 in 2.0 mi NNE 4.6 mph - N/A   Overcast
6:55 PM 53.6 °F 53.2 °F 99% 30.02 in 2.0 mi NNE 5.8 mph - N/A   Overcast
7:15 PM 53.6 °F 53.1 °F 98% 30.03 in 2.0 mi NE 4.6 mph - N/A   Overcast
7:35 PM 53.6 °F 53.1 °F 98% 30.04 in 1.8 mi NNE 4.6 mph - N/A   Overcast
7:55 PM 53.2 °F 52.9 °F 99% 30.03 in 3.0 mi NE 5.8 mph - N/A   Overcast
8:15 PM 53.1 °F 52.9 °F 99% 30.03 in 4.0 mi NE 3.5 mph - N/A   Overcast
8:35 PM 53.1 °F 52.9 °F 99% 30.04 in 3.0 mi NE 4.6 mph - N/A   Overcast
8:55 PM 52.9 °F 52.7 °F 99% 30.03 in 2.5 mi NE 6.9 mph - N/A   Overcast
9:15 PM 52.9 °F 52.7 °F 99% 30.04 in 2.0 mi NNE 4.6 mph - N/A   Overcast
9:35 PM 52.7 °F 52.7 °F 100% 30.04 in 2.0 mi NNE 5.8 mph - N/A   Overcast
10:15 PM 52.3 °F 52.3 °F 100% 30.06 in 2.0 mi NNE 4.6 mph - N/A   Overcast
10:35 PM 52.5 °F 52.5 °F 100% 30.06 in 2.0 mi NNE 4.6 mph - N/A   Overcast
10:55 PM 52.3 °F 52.3 °F 100% 30.06 in 2.0 mi NE 3.5 mph - N/A   Light Drizzle
11:15 PM 52.5 °F 52.5 °F 100% 30.07 in 2.0 mi North 3.5 mph - N/A   Light Drizzle
11:35 PM 52.5 °F 52.5 °F 100% 30.07 in 2.5 mi NNE 3.5 mph - N/A   Light Drizzle
11:55 PM 52.7 °F 52.7 °F 100% 30.06 in 2.5 mi NNE 3.5 mph - N/A   Light Drizzle